TimeEST,TemperatureF,Dew PointF,Humidity,Sea Level PressureIn,VisibilityMPH,Wind Direction,Wind SpeedMPH,Gust SpeedMPH,PrecipitationIn,Events,Conditions,WindDirDegrees,DateUTC
12:15 AM,44.6,44.6,100,30.16,10.0,South,5.8,-,N/A,,Scattered Clouds,190,2013-11-16 05:15:00
12:35 AM,44.6,44.6,100,30.16,10.0,South,4.6,-,N/A,,Mostly Cloudy,170,2013-11-16 05:35:00
12:55 AM,44.6,42.8,93,30.16,10.0,SSW,3.5,-,N/A,,Mostly Cloudy,200,2013-11-16 05:55:00
1:15 AM,44.6,44.6,100,30.15,10.0,South,4.6,-,N/A,,Mostly Cloudy,180,2013-11-16 06:15:00
1:35 AM,44.6,44.6,100,30.15,10.0,SSE,4.6,-,N/A,,Overcast,160,2013-11-16 06:35:00
1:55 AM,44.6,44.6,100,30.14,10.0,SSE,5.8,-,N/A,,Mostly Cloudy,160,2013-11-16 06:55:00
2:15 AM,44.6,44.6,100,30.14,10.0,SSE,5.8,-,N/A,,Overcast,160,2013-11-16 07:15:00
2:35 AM,44.6,44.6,100,30.13,10.0,SSE,6.9,-,N/A,,Overcast,150,2013-11-16 07:35:00
2:55 AM,44.6,44.6,100,30.13,10.0,SSE,5.8,-,N/A,,Scattered Clouds,160,2013-11-16 07:55:00
3:15 AM,44.6,44.6,100,30.13,7.0,SSE,5.8,-,N/A,,Clear,150,2013-11-16 08:15:00
3:35 AM,44.6,44.6,100,30.14,7.0,SSE,5.8,-,N/A,,Clear,160,2013-11-16 08:35:00
3:55 AM,44.6,44.6,100,30.13,7.0,South,6.9,-,N/A,,Clear,170,2013-11-16 08:55:00
4:15 AM,44.6,44.6,100,30.13,7.0,South,4.6,-,N/A,,Scattered Clouds,190,2013-11-16 09:15:00
4:35 AM,44.6,44.6,100,30.13,7.0,SSW,5.8,-,N/A,,Mostly Cloudy,200,2013-11-16 09:35:00
4:55 AM,44.6,44.6,100,30.13,10.0,SSW,5.8,-,N/A,,Overcast,200,2013-11-16 09:55:00
5:15 AM,44.6,44.6,100,30.14,10.0,SSW,5.8,-,N/A,,Overcast,200,2013-11-16 10:15:00
5:35 AM,46.4,46.4,100,30.14,10.0,SSW,6.9,-,N/A,,Overcast,200,2013-11-16 10:35:00
5:55 AM,46.4,46.4,100,30.14,10.0,SSW,6.9,-,N/A,,Mostly Cloudy,200,2013-11-16 10:55:00
6:15 AM,46.4,46.4,100,30.14,10.0,South,5.8,-,N/A,,Overcast,190,2013-11-16 11:15:00
6:35 AM,46.4,46.4,100,30.15,10.0,SSW,5.8,-,N/A,,Scattered Clouds,200,2013-11-16 11:35:00
6:55 AM,46.4,46.4,100,30.15,10.0,SSW,6.9,-,N/A,,Scattered Clouds,200,2013-11-16 11:55:00
7:15 AM,46.4,46.4,100,30.16,10.0,SSW,6.9,-,N/A,,Overcast,210,2013-11-16 12:15:00
7:35 AM,48.2,46.4,93,30.16,10.0,SW,5.8,-,N/A,,Mostly Cloudy,220,2013-11-16 12:35:00
7:55 AM,46.4,46.4,100,30.18,7.0,SW,5.8,-,N/A,,Mostly Cloudy,230,2013-11-16 12:55:00
8:15 AM,50.0,48.2,94,30.18,10.0,SSW,8.1,-,N/A,,Overcast,210,2013-11-16 13:15:00
8:35 AM,50.0,50.0,100,30.18,10.0,SW,6.9,-,N/A,,Overcast,220,2013-11-16 13:35:00
8:55 AM,51.8,50.0,94,30.18,10.0,SW,6.9,-,N/A,,Overcast,220,2013-11-16 13:55:00
9:15 AM,51.8,50.0,94,30.18,10.0,SW,5.8,-,N/A,,Overcast,230,2013-11-16 14:15:00
9:35 AM,51.8,50.0,94,30.18,10.0,SSW,8.1,-,N/A,,Overcast,210,2013-11-16 14:35:00
9:55 AM,51.8,50.0,94,30.19,10.0,SSW,9.2,-,N/A,,Overcast,210,2013-11-16 14:55:00
10:15 AM,53.6,50.0,88,30.18,10.0,SSW,8.1,-,N/A,,Overcast,210,2013-11-16 15:15:00
10:35 AM,53.6,50.0,88,30.19,10.0,SSW,6.9,-,N/A,,Overcast,210,2013-11-16 15:35:00
10:55 AM,53.6,51.8,94,30.18,10.0,SSW,9.2,-,N/A,,Overcast,200,2013-11-16 15:55:00
11:15 AM,55.4,51.8,88,30.18,10.0,SSW,9.2,-,N/A,,Overcast,210,2013-11-16 16:15:00
11:35 AM,55.4,51.8,88,30.16,10.0,SSW,10.4,-,N/A,,Overcast,210,2013-11-16 16:35:00
11:55 AM,55.4,51.8,88,30.15,10.0,SSW,10.4,-,N/A,,Overcast,210,2013-11-16 16:55:00
12:15 PM,55.4,51.8,88,30.15,10.0,SSW,11.5,-,N/A,,Overcast,200,2013-11-16 17:15:00
12:35 PM,55.4,51.8,88,30.14,10.0,SSW,8.1,-,N/A,,Overcast,200,2013-11-16 17:35:00
12:55 PM,57.2,51.8,82,30.12,10.0,SSW,6.9,-,N/A,,Overcast,210,2013-11-16 17:55:00
1:15 PM,57.2,51.8,82,30.11,10.0,SSW,8.1,-,N/A,,Overcast,200,2013-11-16 18:15:00
1:35 PM,59.0,51.8,77,30.10,10.0,South,6.9,-,N/A,,Overcast,180,2013-11-16 18:35:00
1:55 PM,60.8,53.6,77,30.09,10.0,SSW,8.1,-,N/A,,Overcast,200,2013-11-16 18:55:00
2:15 PM,59.0,51.8,77,30.09,10.0,SW,6.9,-,N/A,,Overcast,220,2013-11-16 19:15:00
2:35 PM,59.0,53.6,82,30.08,10.0,SSW,4.6,-,N/A,,Overcast,210,2013-11-16 19:35:00
2:55 PM,60.8,53.6,77,30.08,10.0,South,6.9,-,N/A,,Overcast,180,2013-11-16 19:55:00
3:15 PM,62.6,53.6,72,30.08,10.0,South,6.9,-,N/A,,Overcast,190,2013-11-16 20:15:00
3:35 PM,60.8,53.6,77,30.07,10.0,South,5.8,-,N/A,,Overcast,180,2013-11-16 20:35:00
3:55 PM,60.8,53.6,77,30.07,10.0,South,4.6,-,N/A,,Mostly Cloudy,180,2013-11-16 20:55:00
4:15 PM,60.8,53.6,77,30.06,10.0,South,5.8,-,N/A,,Scattered Clouds,190,2013-11-16 21:15:00
4:35 PM,60.8,53.6,77,30.06,10.0,South,3.5,-,N/A,,Clear,190,2013-11-16 21:35:00
4:55 PM,60.8,53.6,77,30.06,10.0,Calm,Calm,-,N/A,,Mostly Cloudy,0,2013-11-16 21:55:00
5:15 PM,59.0,53.6,82,30.05,10.0,SSE,4.6,-,N/A,,Overcast,160,2013-11-16 22:15:00
5:35 PM,59.0,53.6,82,30.05,10.0,SSE,4.6,-,N/A,,Scattered Clouds,150,2013-11-16 22:35:00
5:55 PM,59.0,53.6,82,30.05,10.0,SSE,6.9,-,N/A,,Clear,160,2013-11-16 22:55:00
6:15 PM,59.0,51.8,77,30.05,10.0,South,8.1,-,N/A,,Clear,170,2013-11-16 23:15:00
6:35 PM,59.0,53.6,82,30.04,10.0,South,8.1,-,N/A,,Clear,190,2013-11-16 23:35:00
6:55 PM,59.0,53.6,82,30.04,10.0,SSW,10.4,-,N/A,,Clear,200,2013-11-16 23:55:00
7:15 PM,59.0,51.8,77,30.05,10.0,SW,9.2,-,N/A,,Scattered Clouds,220,2013-11-17 00:15:00
7:35 PM,59.0,51.8,77,30.04,10.0,SSW,9.2,-,N/A,,Mostly Cloudy,200,2013-11-17 00:35:00
7:55 PM,59.0,51.8,77,30.03,10.0,SSW,10.4,-,N/A,,Overcast,210,2013-11-17 00:55:00
8:15 PM,59.0,53.6,82,30.02,10.0,SSW,13.8,-,N/A,,Overcast,210,2013-11-17 01:15:00
8:35 PM,59.0,53.6,82,30.02,10.0,SSW,10.4,-,N/A,,Overcast,210,2013-11-17 01:35:00
8:55 PM,59.0,53.6,82,30.02,10.0,SSW,11.5,-,N/A,,Overcast,210,2013-11-17 01:55:00
9:15 PM,59.0,53.6,82,30.03,10.0,SSW,10.4,-,N/A,,Overcast,210,2013-11-17 02:15:00
9:35 PM,59.0,53.6,82,30.03,10.0,SSW,11.5,-,N/A,,Overcast,210,2013-11-17 02:35:00
9:55 PM,59.0,53.6,82,30.02,10.0,SSW,12.7,18.4,N/A,,Overcast,210,2013-11-17 02:55:00
10:15 PM,59.0,53.6,82,30.01,10.0,SSW,13.8,-,N/A,,Overcast,210,2013-11-17 03:15:00
10:35 PM,59.0,53.6,82,30.01,10.0,SW,11.5,19.6,N/A,,Scattered Clouds,220,2013-11-17 03:35:00
10:55 PM,59.0,53.6,82,30.01,10.0,SSW,16.1,19.6,N/A,,Mostly Cloudy,210,2013-11-17 03:55:00
11:15 PM,59.0,53.6,82,30.01,10.0,SW,11.5,19.6,N/A,,Mostly Cloudy,220,2013-11-17 04:15:00
11:35 PM,59.0,53.6,82,30.01,10.0,SW,12.7,20.7,N/A,,Mostly Cloudy,220,2013-11-17 04:35:00
11:55 PM,59.0,53.6,82,30.00,10.0,SW,16.1,24.2,N/A,,Mostly Cloudy,220,2013-11-17 04:55:00